This is the latest recevied weather packets stored in our database for station/object KC9DRE. If no packets are shown the sender has not sent any weather packets the latest 10 day(s).
| Time | Temp. | Humidity | Pressure | Rain* | Wind** | Luminosity | Snow |
|---|---|---|---|---|---|---|---|
| 1777839470 | 19.44° C | 37% | 1016.3 hPa | 0 mm | - | 633 W/m² | - |
| 1777839167 | 18.89° C | 36% | 1016.3 hPa | 0 mm | - | 649 W/m² | - |
| 1777838863 | 18.89° C | 34% | 1016.3 hPa | 0 mm | - | 664 W/m² | - |
| 1777838559 | 18.89° C | 36% | 1016.6 hPa | 0 mm | - | 684 W/m² | - |
| 1777838257 | 18.89° C | 34% | 1016.7 hPa | 0 mm | - | 478 W/m² | - |
| 1777837953 | 18.89° C | 34% | 1016.9 hPa | 0 mm | - | 698 W/m² | - |
| 1777837652 | 18.89° C | 36% | 1016.7 hPa | 0 mm | - | 710 W/m² | - |
| 1777837347 | 19.44° C | 32% | 1017 hPa | 0 mm | - | 731 W/m² | - |
| 1777837043 | 18.89° C | 35% | 1017.1 hPa | 0 mm | - | 742 W/m² | - |
| 1777836739 | 18.89° C | 35% | 1017 hPa | 0 mm | - | 758 W/m² | - |
| 1777836435 | 18.89° C | 35% | 1017.3 hPa | 0 mm | - | 767 W/m² | - |
| 1777836130 | 18.89° C | 32% | 1017.5 hPa | 0 mm | - | 780 W/m² | - |
| 1777835827 | 18.89° C | 34% | 1017.6 hPa | 0 mm | - | 781 W/m² | - |
| 1777835524 | 18.33° C | 34% | 1017.8 hPa | 0 mm | - | 786 W/m² | - |
| 1777835221 | 18.33° C | 33% | 1018 hPa | 0 mm | - | 796 W/m² | - |
| 1777834918 | 18.89° C | 34% | 1017.9 hPa | 0 mm | - | 803 W/m² | - |
| 1777834615 | 18.89° C | 32% | 1018.1 hPa | 0 mm | - | 808 W/m² | - |
| 1777834310 | 18.33° C | 34% | 1018 hPa | 0 mm | - | 815 W/m² | - |
| 1777834005 | 18.89° C | 35% | 1018.3 hPa | 0 mm | - | 821 W/m² | - |
| 1777833702 | 18.33° C | 32% | 1018.4 hPa | 0 mm | - | 828 W/m² | - |
| 1777833398 | 18.33° C | 31% | 1018.4 hPa | 0 mm | - | 834 W/m² | - |
| 1777833096 | 18.33° C | 32% | 1018.4 hPa | 0 mm | - | 840 W/m² | - |
| 1777832794 | 18.33° C | 32% | 1018.5 hPa | 0 mm | - | 843 W/m² | - |
| 1777832492 | 18.33° C | 34% | 1018.6 hPa | 0 mm | - | 848 W/m² | - |
| 1777832189 | 18.33° C | 35% | 1018.2 hPa | 0 mm | - | 850 W/m² | - |
* Rain latest hour (hover to see other rain measurements)
** Current wind speed in m/s (hover to see current wind gust speed)